TimeEDT,TemperatureF,Dew PointF,Humidity,Sea Level PressureIn,VisibilityMPH,Wind Direction,Wind SpeedMPH,Gust SpeedMPH,PrecipitationIn,Events,Conditions,WindDirDegrees,DateUTC
12:54 AM,61.0,57.9,90,29.74,10.0,WNW,12.7,-,0.00,Rain,Light Rain,290,2012-09-09 04:54:00
1:54 AM,60.1,57.0,90,29.74,10.0,West,6.9,-,0.00,,Mostly Cloudy,270,2012-09-09 05:54:00
2:54 AM,60.1,57.9,93,29.76,10.0,West,6.9,-,0.00,Rain,Light Rain,260,2012-09-09 06:54:00
3:54 AM,59.0,57.0,93,29.77,10.0,West,8.1,-,0.00,Rain,Light Rain,270,2012-09-09 07:54:00
4:54 AM,59.0,57.0,93,29.77,10.0,West,9.2,-,0.00,,Clear,280,2012-09-09 08:54:00
5:54 AM,57.9,55.9,93,29.80,10.0,West,4.6,-,N/A,,Partly Cloudy,260,2012-09-09 09:54:00
6:54 AM,57.9,55.0,90,29.82,10.0,West,6.9,-,N/A,,Mostly Cloudy,270,2012-09-09 10:54:00
7:54 AM,59.0,54.0,83,29.82,10.0,NW,5.8,16.1,0.00,,Clear,310,2012-09-09 11:54:00
8:54 AM,59.0,53.1,81,29.84,10.0,NNW,3.5,-,N/A,,Clear,330,2012-09-09 12:54:00
9:54 AM,60.1,52.0,75,29.86,10.0,NW,5.8,-,N/A,,Clear,310,2012-09-09 13:54:00
10:54 AM,61.0,51.1,70,29.86,10.0,NW,6.9,-,N/A,,Clear,320,2012-09-09 14:54:00
11:54 AM,63.0,52.0,67,29.87,10.0,NW,5.8,-,N/A,,Clear,310,2012-09-09 15:54:00
12:54 PM,66.0,52.0,60,29.86,10.0,NNW,6.9,-,N/A,,Clear,330,2012-09-09 16:54:00
1:54 PM,69.1,50.0,51,29.84,10.0,NW,6.9,-,N/A,,Clear,320,2012-09-09 17:54:00
2:54 PM,70.0,52.0,53,29.82,10.0,NNW,8.1,-,N/A,,Clear,330,2012-09-09 18:54:00
3:54 PM,71.1,52.0,51,29.82,10.0,NW,6.9,-,N/A,,Scattered Clouds,310,2012-09-09 19:54:00
4:54 PM,70.0,53.1,55,29.81,10.0,WNW,4.6,-,N/A,,Clear,300,2012-09-09 20:54:00
5:54 PM,70.0,53.1,55,29.82,10.0,NW,6.9,-,N/A,,Scattered Clouds,320,2012-09-09 21:54:00
6:54 PM,64.9,54.0,68,29.83,10.0,NW,5.8,-,N/A,,Clear,320,2012-09-09 22:54:00
7:54 PM,62.1,54.0,75,29.85,10.0,NNW,4.6,-,N/A,,Clear,330,2012-09-09 23:54:00
8:54 PM,62.1,52.0,70,29.86,10.0,NW,4.6,-,N/A,,Clear,320,2012-09-10 00:54:00
9:54 PM,62.1,51.1,67,29.86,10.0,NNW,4.6,-,N/A,,Clear,330,2012-09-10 01:54:00
10:54 PM,63.0,50.0,63,29.86,10.0,NNW,9.2,-,N/A,,Clear,340,2012-09-10 02:54:00
11:54 PM,62.1,48.9,62,29.87,10.0,NNW,8.1,-,N/A,,Clear,340,2012-09-10 03:54:00